Location: Cosy Dell
(34.2789°N, 117.4537°W)
Time: 12:26:08
(UTC+00:00)

USA 245 - Pass Details

Date: 14 July 2020
Orbit: 271 x 1010 km, 97.9° (Epoch: 03 August)

Event Time Altitude Azimuth Distance (km) Brightness Sun altitude
Exits shadow 05:12:42 62° 199° (SSW) 647 3.4 -22.0°
Maximum altitude 05:13:17 75° 259° (WSW) 609 3.5 -22.1°
Drops below altitude 10° 05:17:58 10° 345° (NNW) 2,161 7.2 -22.7°
Sets 05:20:32 0° 347° (NNW) 3,215 8.3 -23.0°
